Wind_Speed
39 40 40 41 41 40 39 38 37 36 36 37 37 38 38 37 37 38 38 38 38 37 36 35 34 34 34 34 33 31 29 28 27 28 28 29 29 29 29 29 28 28 28 28 29 30 31 32 32 32 32 31 30 30 30 30 31 31 32 32 33 33 34 34 35 36 36 37 38 39 39 39 39 39 38 38 37 36 35 34 33 32 32 31 30 29
37 36 35 34 33 32 31 31 31 31 32 33 34 34 35 35 36 36 37 37 36 35 34 33 33 32 32 32 31 29 28 27 27 27 28 28 28 29 28 28 28 28 28 29 30 31 32 33 33 33 32 31 31 30 30 30 31 31 32 33 33 34 35 36 36 37 38 39 39 39 39 38 37 36 34 33 32 30 29 28 28 27 26 26 25 25
33 31 30 28 27 25 24 24 25 26 28 29 30 30 31 33 34 35 35 35 34 33 32 31 30 30 30 29 28 27 26 26 26 27 27 28 28 28 28 28 28 28 29 30 31 32 33 33 34 33 32 31 31 30 31 31 32 32 33 34 35 36 36 37 38 38 39 39 38 37 36 34 32 31 29 27 26 25 25 24 24 24 23 23 23 23
29 27 25 24 22 21 20 20 21 23 24 25 26 28 29 31 32 33 33 32 31 30 30 29 28 27 27 26 25 24 24 24 25 26 26 27 27 27 27 28 28 29 30 31 32 33 34 34 34 33 32 31 31 31 31 32 33 34 35 35 36 37 38 38 38 38 37 36 34 32 30 28 27 25 24 23 22 22 22 22 23 23 23 24 24 24
26 24 22 21 20 19 19 19 20 21 23 24 25 26 27 28 29 29 29 28 28 27 26 26 25 24 23 23 23 23 23 24 24 25 26 26 26 27 27 28 29 30 31 32 33 34 34 34 34 33 32 32 32 32 33 33 34 35 36 37 37 37 37 36 35 34 32 30 28 26 24 23 22 21 21 21 21 22 22 23 23 24 25 25 25 26
23 22 20 19 18 18 18 18 19 20 21 22 23 23 24 24 24 24 23 23 23 22 22 21 21 21 21 21 22 22 23 24 24 25 26 26 27 28 28 29 31 32 33 34 34 34 34 34 33 33 32 32 32 33 34 35 36 36 37 37 36 35 33 31 29 27 25 23 22 21 20 20 20 20 21 21 22 23 24 24 25 26 26 27 27 27
21 20 19 18 16 16 16 16 16 17 17 17 17 17 17 17 18 18 18 18 18 18 19 19 19 20 20 21 22 23 24 25 25 26 27 28 29 29 30 31 32 33 34 34 34 34 33 33 33 33 33 33 33 34 35 35 36 35 35 33 31 29 27 25 23 21 20 19 19 19 19 20 21 21 22 23 24 24 25 26 26 27 27 28 28 28
20 19 18 17 15 14 13 13 12 12 12 12 12 13 13 13 14 14 15 15 16 17 18 18 19 20 21 23 24 25 25 26 27 28 29 30 31 31 32 33 33 33 33 33 33 33 33 33 33 33 33 34 34 34 34 34 33 31 29 27 25 23 21 19 18 18 18 18 19 20 20 21 22 23 24 24 25 26 26 27 27 28 28 28 29 29
18 18 17 16 15 14 13 12 12 11 11 11 11 11 11 12 13 14 15 16 17 17 18 20 21 22 23 24 25 26 27 28 29 30 30 31 32 32 32 32 32 32 33 33 33 34 34 34 34 34 34 33 33 32 31 30 28 25 23 21 19 18 17 17 17 18 19 19 20 21 22 23 23 24 25 25 26 26 27 27 28 28 29 29 29 29
17 17 17 17 16 15 14 14 13 13 12 12 12 12 12 13 14 15 16 17 18 19 20 21 22 24 25 26 27 28 29 29 30 30 31 31 31 31 31 32 32 32 33 34 34 34 35 34 34 33 32 31 29 28 26 23 21 20 18 17 17 17 17 17 18 19 20 21 21 22 23 23 24 25 25 26 26 27 27 28 28 28 29 29 30 30
17 17 17 17 17 16 16 15 15 15 15 14 14 14 15 15 16 17 18 19 20 21 21 23 24 25 26 27 28 29 29 30 30 30 31 31 31 31 32 32 32 33 34 34 35 35 34 33 31 30 28 26 24 22 20 18 17 16 16 16 16 17 18 19 19 20 21 22 22 23 23 24 24 25 25 26 26 27 27 28 28 29 29 29 30 30
17 17 17 17 17 17 17 16 16 16 17 17 17 17 17 18 18 19 20 21 21 22 23 24 25 26 27 28 29 29 30 30 30 31 31 31 32 32 33 33 34 34 34 34 34 33 31 29 27 24 22 20 19 17 16 15 15 15 16 16 17 18 19 20 21 21 22 22 23 23 24 24 25 25 26 26 27 27 27 28 28 29 29 30 30 31
17 17 17 18 18 18 18 18 18 18 18 19 19 19 20 20 21 21 21 22 23 24 25 26 27 27 28 29 30 30 31 31 32 32 32 33 33 34 34 34 34 33 33 32 31 29 27 24 21 19 17 16 15 15 15 15 15 16 17 18 19 19 20 21 22 22 23 23 23 24 24 24 25 25 26 26 27 27 28 28 29 29 30 30 31 31
17 18 18 19 19 19 19 19 20 20 20 20 21 21 22 22 23 23 23 24 25 26 26 27 28 29 30 31 32 32 32 33 33 33 33 34 34 35 34 34 32 31 29 28 26 24 21 18 17 16 15 15 15 15 15 16 17 17 18 19 20 21 21 22 22 22 23 23 23 24 24 25 25 26 27 27 28 28 29 29 30 30 31 31 31 32
19 19 20 20 20 21 21 21 21 21 22 22 22 23 23 24 25 25 25 26 27 28 29 30 30 32 32 33 34 34 34 34 34 34 33 33 34 34 33 31 29 27 25 23 21 19 17 15 15 14 15 15 15 16 16 17 18 19 20 20 21 21 22 22 22 23 23 23 24 24 25 26 26 27 27 28 29 29 30 30 31 31 32 32 32 33
20 21 22 22 22 23 23 23 23 24 24 24 25 25 26 26 27 28 28 29 29 30 31 32 32 33 34 35 35 35 35 34 34 33 32 32 32 32 31 27 25 22 21 19 17 15 14 14 14 15 15 16 16 17 18 18 19 20 20 21 21 22 22 22 23 23 23 24 25 25 26 26 27 28 28 29 29 30 31 31 32 32 32 33 33 33
23 23 24 24 25 25 26 26 27 27 27 27 28 28 28 29 30 30 31 31 32 33 33 34 34 34 35 35 35 35 35 34 32 31 30 29 29 29 27 23 20 18 18 16 15 14 14 14 15 16 16 17 18 18 19 19 20 21 21 21 22 22 22 23 23 24 24 25 25 26 27 27 28 29 29 30 30 31 32 32 32 33 33 33 34 34
25 26 26 27 27 28 28 29 29 29 30 30 30 30 31 31 32 32 33 33 33 34 34 34 34 34 34 34 34 34 34 32 31 28 27 26 26 26 23 19 17 16 16 15 15 14 14 15 16 17 17 18 19 19 20 20 21 21 21 22 22 22 23 23 24 25 25 26 26 27 28 28 29 30 30 31 31 32 32 33 33 33 34 34 34 34
27 28 28 28 29 29 30 30 31 31 31 31 31 32 32 32 32 33 33 33 33 33 33 33 33 33 33 33 32 32 31 30 28 25 23 23 24 22 19 16 15 16 16 15 15 15 15 16 17 18 18 19 20 20 20 21 21 22 22 22 23 23 24 24 25 26 26 27 28 28 29 29 30 30 31 32 32 33 33 33 34 34 34 34 34 34
28 28 29 29 29 30 30 30 30 31 31 31 31 31 31 32 32 32 32 32 32 32 32 31 31 31 30 30 30 29 28 26 24 22 21 21 21 20 17 15 15 16 16 16 16 16 16 17 18 19 19 20 20 21 21 21 22 22 23 23 24 24 25 26 26 27 27 28 29 29 30 30 31 31 32 32 33 33 34 34 34 34 35 35 35 35
28 28 28 28 28 29 29 29 29 29 29 29 29 29 29 29 30 30 30 30 30 30 29 29 29 28 28 27 27 26 25 23 21 19 19 19 19 18 16 15 15 16 16 17 17 17 17 18 19 20 20 21 21 22 22 22 23 23 24 24 25 25 26 27 27 28 28 29 29 30 31 31 32 32 33 33 33 34 34 34 35 35 35 35 35 35
26 26 26 26 26 26 26 26 26 26 27 27 27 27 27 27 27 27 27 27 27 27 27 27 26 26 25 24 24 23 21 20 19 17 17 18 18 18 16 16 16 17 17 17 18 18 18 19 20 20 21 22 22 22 23 23 24 24 25 25 26 27 27 28 28 29 29 30 30 31 31 32 32 33 33 34 34 34 35 35 35 35 35 35 35 35
24 24 24 24 24 24 24 24 24 24 24 25 25 25 25 24 24 24 24 24 25 25 24 24 24 23 23 22 22 21 19 18 17 17 17 17 18 18 17 17 17 17 18 18 18 19 19 20 20 21 22 23 23 23 24 24 25 25 26 27 27 28 28 29 29 30 30 31 31 31 32 32 33 33 34 34 35 35 35 35 36 36 36 36 36 36
22 22 22 22 22 22 23 23 23 23 23 23 23 23 23 23 23 22 22 23 23 22 22 22 22 22 22 21 21 20 18 17 17 17 17 17 18 19 19 18 18 18 18 19 19 19 20 20 21 22 23 24 24 24 25 25 26 26 27 28 28 29 29 30 30 30 31 31 32 32 33 33 34 34 34 35 35 35 36 36 36 36 36 36 36 36
21 21 21 21 21 21 22 22 22 22 22 22 22 22 22 22 22 21 22 22 22 21 21 21 20 21 21 21 20 19 18 17 17 17 17 17 18 19 20 19 19 18 19 20 20 21 21 21 22 23 24 25 25 25 26 26 27 28 28 29 29 30 30 31 31 31 32 32 33 33 34 34 34 35 35 35 36 36 36 36 37 37 37 37 37 36
20 20 20 20 20 21 21 21 21 22 22 22 22 22 21 21 21 21 21 22 22 21 20 20 20 20 20 20 20 19 19 18 18 18 17 18 18 20 21 20 20 19 20 20 21 21 22 22 23 24 25 26 26 26 27 27 28 29 29 30 30 30 31 31 32 33 33 34 34 34 35 35 35 35 35 36 36 36 37 37 37 37 37 37 37 37
20 20 20 20 20 20 20 21 21 21 21 21 21 21 21 20 20 21 21 22 22 21 20 19 19 20 20 20 20 20 19 19 18 18 18 18 19 20 21 21 21 20 21 21 22 22 23 23 24 25 26 27 27 27 28 28 29 29 30 30 31 31 32 33 33 34 34 35 35 35 36 36 36 36 36 36 37 37 37 37 37 38 38 38 37 37
20 20 20 20 20 20 20 20 21 21 21 21 21 21 21 20 20 20 21 22 22 21 20 20 20 20 21 21 21 21 20 20 19 19 19 19 19 20 21 22 22 21 21 22 22 23 23 24 25 26 27 27 28 28 28 29 29 30 30 31 31 32 33 33 34 35 35 36 36 37 37 37 37 37 37 37 37 37 38 38 38 38 38 38 38 37
21 21 22 21 21 21 21 21 21 21 21 21 21 21 21 21 20 21 21 22 21 21 21 20 21 21 21 21 21 21 21 21 21 20 20 20 20 20 21 22 22 22 22 23 23 23 24 25 25 26 27 27 28 28 28 29 29 30 31 31 32 33 33 34 35 36 36 37 37 37 38 38 38 38 38 38 38 38 38 38 38 39 39 38 38 37
22 23 23 23 23 23 22 22 21 21 21 22 22 21 21 21 21 21 21 22 21 21 21 21 21 21 21 21 21 22 22 23 22 22 21 21 21 21 22 23 23 23 24 24 24 24 24 25 26 26 27 27 27 28 28 29 29 30 31 32 32 33 34 35 35 36 36 37 37 38 38 38 38 38 39 39 39 39 39 39 39 39 39 39 38 38
23 23 23 23 24 24 24 23 23 22 22 22 22 22 22 22 22 22 22 22 22 21 21 21 22 22 22 22 21 22 23 24 24 24 23 22 22 22 23 23 24 25 25 25 25 25 24 24 25 26 26 27 27 28 28 29 29 30 31 32 33 33 34 35 36 36 37 37 38 38 38 39 39 39 39 39 39 39 39 39 39 39 39 39 38 38
23 23 23 23 24 24 24 24 24 24 23 23 22 22 22 22 22 22 22 22 22 22 22 22 22 22 22 22 22 22 23 25 25 25 24 23 23 23 23 24 25 25 26 27 27 26 26 25 24 25 25 26 27 27 28 29 29 30 31 32 33 33 34 35 35 36 37 37 37 38 38 39 39 39 39 39 39 39 39 39 39 39 39 39 39 38
23 24 24 24 24 24 24 24 24 24 24 24 23 23 23 23 22 23 23 23 23 22 22 22 22 22 22 22 22 23 24 25 26 26 25 24 24 24 24 25 25 26 27 28 28 28 28 27 26 26 25 26 26 27 27 28 29 30 31 32 32 33 34 34 35 36 36 37 37 38 38 38 39 39 39 39 39 39 39 39 39 39 39 39 39 38
24 24 24 24 24 25 25 25 25 25 25 24 24 23 23 23 23 23 23 23 23 23 23 22 22 22 22 22 23 23 24 26 26 26 26 25 24 25 25 25 26 27 28 28 29 29 29 29 28 28 27 26 26 26 27 28 29 30 30 31 32 32 33 34 34 35 36 36 37 37 38 38 38 38 38 39 39 39 39 38 38 38 38 38 38 38
24 24 25 25 25 25 25 25 25 25 25 25 24 24 23 23 23 23 23 23 23 23 23 23 23 23 23 23 23 23 24 26 27 27 26 25 25 25 26 26 27 28 28 29 29 30 30 30 30 29 29 28 27 27 27 28 29 29 29 30 30 31 32 32 33 34 35 36 36 36 37 37 37 37 38 38 38 38 37 37 37 37 37 37 37 37
25 25 25 25 25 25 25 25 25 25 25 25 25 24 24 23 23 23 23 23 23 23 23 24 24 23 23 23 23 23 24 26 26 27 26 26 26 26 26 27 28 28 29 29 30 30 30 30 30 30 30 30 29 28 28 28 28 28 28 28 29 29 30 31 32 33 34 34 35 35 36 36 36 37 36 36 36 36 36 36 35 36 36 36 36 37
25 25 25 25 25 25 25 26 25 25 25 25 25 24 24 23 23 23 22 23 23 23 23 24 24 24 24 24 23 24 24 25 26 26 27 27 27 27 27 28 28 29 29 30 30 30 31 31 31 31 31 31 31 30 30 29 29 28 27 27 27 27 28 28 30 31 32 33 34 34 35 35 35 36 36 35 35 35 35 34 34 35 35 35 36 36
26 26 26 26 26 26 26 26 25 25 25 25 25 24 24 24 23 23 23 23 23 23 23 23 24 24 24 24 24 24 24 25 25 26 26 27 27 27 28 28 29 29 30 30 30 31 31 32 32 32 32 32 32 32 31 30 29 28 27 27 26 26 26 27 28 29 30 31 32 33 33 34 34 35 35 34 34 34 34 33 34 34 34 35 36 36
26 26 26 26 26 26 26 26 25 25 25 25 25 25 24 24 23 23 23 23 23 23 23 24 24 24 24 24 24 24 24 25 25 26 26 27 28 28 28 29 29 29 30 30 31 31 32 32 32 33 33 32 32 32 31 31 30 29 28 27 26 25 26 27 27 28 29 30 30 31 32 33 33 33 33 34 33 33 33 33 33 34 35 35 36 36
26 26 26 26 26 26 26 26 26 26 25 25 25 25 24 24 24 24 24 24 24 24 24 24 23 23 23 24 24 24 24 25 25 26 27 27 28 28 29 29 29 30 30 31 31 32 32 33 33 33 33 33 33 32 31 31 30 29 28 27 26 26 26 26 27 27 28 29 29 30 31 31 32 32 33 33 33 33 33 33 33 34 35 35 36 36
26 26 26 26 26 26 26 26 26 26 25 25 25 25 25 24 24 24 24 24 24 24 24 23 23 23 23 23 24 24 25 25 26 26 27 28 28 29 29 29 30 30 31 32 32 33 33 33 34 33 33 33 33 33 32 31 30 29 29 28 27 27 26 26 26 27 28 28 29 29 30 31 32 32 32 33 33 33 33 34 34 35 35 36 36 37
26 26 26 26 26 26 26 26 26 26 25 25 25 25 25 24 24 24 24 24 24 24 24 23 23 22 23 23 24 24 25 25 26 27 27 28 29 29 30 30 31 31 32 32 33 33 33 34 34 34 34 34 33 33 32 31 29 29 29 28 28 28 27 26 26 27 27 28 29 29 30 31 32 33 33 33 33 33 34 34 35 35 36 36 37 37
26 26 26 26 26 26 26 26 26 25 25 25 25 25 24 24 24 24 24 24 24 24 23 23 23 22 22 23 24 25 26 26 27 28 28 29 29 30 31 31 32 32 33 33 33 34 34 34 34 34 34 34 34 33 32 30 29 28 28 28 29 28 27 26 26 27 27 28 29 30 31 32 33 33 34 34 34 34 34 35 35 36 36 37 37 37
26 26 26 26 26 26 26 26 25 25 25 25 25 25 24 24 24 24 23 23 23 23 23 23 23 22 22 23 24 25 26 27 28 28 29 29 30 31 31 32 32 33 33 34 34 34 34 34 34 34 34 34 33 33 32 30 29 29 28 28 29 28 28 27 27 27 28 29 30 31 32 33 34 34 34 34 34 35 35 35 35 35 36 36 36 36
26 26 26 26 26 26 26 25 25 25 25 25 25 24 24 24 24 23 23 23 23 23 23 23 23 23 23 23 24 25 26 27 28 28 29 30 31 31 32 32 33 33 34 34 34 34 34 34 34 34 34 33 33 32 31 30 30 29 28 28 29 29 28 28 28 28 29 30 30 31 33 34 35 35 35 35 35 35 35 35 35 35 35 35 35 35
27 26 26 26 26 26 26 25 25 25 25 25 24 24 24 24 24 23 23 23 23 23 23 23 23 23 23 24 24 25 26 26 27 28 29 30 31 32 32 33 33 34 34 34 35 35 35 35 34 34 33 33 32 32 31 30 30 30 29 29 29 29 29 29 29 29 30 31 31 32 33 35 35 36 36 36 36 35 35 34 34 34 34 34 34 34
27 26 26 26 26 26 26 25 25 25 24 24 24 24 24 24 23 23 23 23 22 23 23 23 23 23 24 25 25 26 26 26 27 28 29 30 31 32 33 33 34 34 34 35 35 35 35 35 34 34 34 33 32 31 31 30 30 30 30 29 29 29 29 29 29 30 31 32 32 33 34 35 36 36 37 36 36 35 34 33 33 33 33 33 33 33
27 26 26 26 26 25 25 25 25 24 24 24 24 24 24 23 23 23 23 23 23 23 23 23 24 24 25 25 26 26 27 27 28 28 29 30 31 32 32 33 34 34 34 35 35 35 35 35 34 34 34 33 32 31 31 30 30 30 30 30 30 29 29 29 30 31 31 32 33 34 35 35 36 36 37 37 36 35 33 32 32 32 32 32 33 33
27 26 26 26 25 25 25 25 24 24 24 23 23 23 23 23 23 23 23 23 23 23 24 24 25 25 26 26 27 27 28 28 28 29 30 30 31 32 32 33 33 34 34 34 34 35 34 34 34 33 33 33 32 31 31 30 30 30 30 30 30 30 30 30 30 31 32 33 33 34 35 35 36 36 37 37 36 35 33 32 31 31 31 32 32 32
26 26 26 26 25 25 25 24 24 24 23 23 23 23 23 23 23 23 23 24 24 24 25 25 26 26 26 27 28 28 28 29 29 30 30 31 32 32 32 33 33 33 33 34 34 34 34 33 33 32 32 32 31 31 31 30 30 29 29 29 30 30 31 31 31 32 33 33 34 34 35 35 36 36 37 37 36 35 33 32 30 30 30 31 31 31
26 26 26 25 25 25 24 24 24 23 23 23 23 23 23 23 24 24 24 24 25 25 26 26 26 27 27 28 28 28 29 29 30 30 31 31 32 32 33 33 33 33 33 33 33 33 33 33 32 31 30 30 31 31 31 30 30 30 29 29 30 31 31 32 32 33 33 34 34 35 35 35 35 36 36 37 37 36 34 32 30 29 29 30 30 30
Wind_Direction
307 305 302 299 295 291 287 282 277 274 272 273 273 274 275 276 277 277 276 275 274 274 274 275 274 272 270 267 266 267 268 269 270 270 270 270 269 268 267 266 266 266 266 267 267 268 268 268 268 268 268 269 270 272 273 274 275 276 276 276 276 276 276 276 276 276 276 277 277 278 278 279 279 279 279 279 279 278 278 278 277 277 276 276 275 275
312 310 308 304 300 295 290 284 278 274 272 271 271 272 273 274 274 274 274 273 273 274 274 274 273 272 270 269 269 269 271 271 271 270 270 269 268 267 267 267 267 268 268 269 269 269 269 269 269 270 272 273 275 276 277 277 277 277 276 276 276 277 277 277 278 279 279 280 280 280 280 280 280 280 279 279 278 278 277 276 276 275 275 274 274 274
317 317 316 313 309 302 294 286 279 274 272 271 271 272 272 273 273 274 274 274 274 274 275 275 275 274 272 271 271 270 270 270 269 268 267 267 267 267 267 268 269 270 270 270 270 270 270 270 271 272 274 276 277 278 278 278 278 278 277 278 278 278 279 280 281 281 282 282 282 281 281 280 279 278 278 277 276 276 275 275 274 274 274 274 275 275
322 324 324 322 318 312 303 294 286 280 277 276 276 276 276 276 276 275 275 275 276 277 278 279 278 277 275 273 271 270 269 268 267 266 266 266 266 267 269 270 271 271 272 271 271 271 271 272 273 274 276 277 278 278 278 278 279 279 279 280 280 281 281 282 282 282 282 281 280 279 278 277 276 275 275 274 274 274 274 274 275 275 275 276 276 277
326 330 330 328 324 319 312 305 298 293 289 286 285 283 282 280 279 278 277 278 279 281 282 281 280 277 274 272 270 268 267 267 266 266 267 268 269 270 271 272 273 273 273 273 273 273 273 274 275 276 277 278 279 279 279 280 280 280 281 281 282 282 282 282 281 280 279 277 276 275 274 273 272 272 273 273 273 274 275 275 276 277 277 278 278 279
328 333 335 334 330 325 320 314 308 303 298 294 291 288 285 283 282 281 281 282 283 283 283 281 278 275 272 270 269 269 268 268 268 269 270 271 272 273 273 273 274 273 273 273 274 274 275 276 277 278 279 279 280 280 280 280 281 281 281 282 282 281 280 279 277 275 274 272 271 270 270 271 272 273 274 274 276 276 277 278 279 279 280 280 281 281
329 334 338 339 337 333 327 320 314 309 304 300 296 293 290 288 286 286 285 285 284 283 280 278 275 273 271 271 270 270 271 271 272 272 273 274 274 274 274 274 273 273 274 274 275 276 276 277 278 279 279 280 281 281 281 281 281 281 281 281 279 278 276 274 271 270 268 268 269 270 272 273 275 276 277 278 279 280 280 281 282 282 282 283 283 283
328 334 338 341 341 338 334 328 322 317 312 308 304 300 296 293 290 288 286 284 281 279 277 275 274 273 272 272 272 272 272 273 273 274 274 274 273 273 273 273 274 274 275 276 276 277 277 278 279 280 281 281 282 282 282 281 281 280 279 277 274 272 269 267 266 267 268 270 272 274 275 277 278 279 280 281 282 282 283 283 284 284 284 285 285 285
327 332 335 337 339 338 336 333 328 323 318 312 307 302 297 291 287 283 281 278 276 275 273 273 272 272 272 271 272 272 272 272 272 272 272 272 272 272 273 274 275 276 276 276 277 277 278 279 280 281 282 282 282 282 280 279 277 275 272 269 267 265 264 265 267 269 271 274 275 277 279 280 281 282 283 283 284 284 285 285 285 285 286 286 286 286
325 329 331 332 333 333 332 329 325 320 314 308 302 295 290 285 281 278 276 274 273 272 271 271 271 270 270 270 270 270 271 271 271 272 272 273 273 274 275 275 276 276 277 278 278 279 280 281 282 283 283 282 280 278 276 273 270 267 264 263 262 263 266 268 271 273 275 277 279 280 281 282 282 283 283 284 284 285 285 286 286 286 286 286 286 286
326 327 328 327 327 325 323 320 317 313 308 303 296 291 286 281 278 276 275 274 274 273 272 271 271 271 271 271 272 272 273 273 274 274 275 275 276 276 277 277 278 278 279 280 281 282 282 283 283 282 280 278 275 272 268 265 262 260 260 261 264 267 270 273 275 276 278 279 280 281 281 282 282 283 283 284 284 285 285 286 286 286 287 287 287 287
325 325 323 321 318 315 312 309 307 304 301 296 292 289 285 282 280 278 277 276 276 276 276 276 275 274 274 274 275 275 276 276 276 277 277 278 279 279 280 280 280 281 282 282 283 283 283 282 281 278 274 270 266 262 260 258 258 260 262 266 269 272 274 275 277 278 278 279 280 281 281 282 283 283 284 284 285 285 286 286 286 286 287 286 286 286
320 317 314 312 309 306 303 301 299 297 294 292 289 287 285 284 283 282 281 280 280 280 279 279 279 278 278 277 277 277 278 278 279 280 280 281 282 282 282 282 283 283 283 283 282 282 281 279 275 270 265 260 257 256 256 257 260 264 267 270 272 274 275 276 277 278 279 280 280 281 282 283 284 284 285 286 286 286 287 287 287 287 286 286 286 286
311 308 305 303 301 299 298 296 295 293 291 289 288 287 286 286 285 284 284 283 282 281 281 280 279 279 279 279 279 279 280 280 281 282 283 284 284 284 284 284 284 284 283 282 280 278 275 271 264 259 255 253 253 255 258 261 265 268 270 272 274 275 276 277 278 279 280 281 282 283 284 285 286 286 287 287 287 287 287 287 287 286 286 286 285 285
304 302 300 298 297 296 295 293 292 291 290 289 288 287 287 287 286 286 285 284 283 282 281 281 280 280 281 281 281 282 282 282 283 284 285 285 285 285 284 285 285 284 281 278 274 270 265 259 253 250 250 252 255 258 261 265 268 270 272 273 274 276 277 278 279 281 282 283 284 285 286 287 287 287 287 287 287 287 286 286 286 285 285 285 284 284
302 300 299 298 297 296 295 293 292 291 291 290 289 288 288 287 287 286 285 284 283 282 282 281 281 282 282 283 284 284 284 284 285 286 286 287 286 285 285 285 284 280 275 271 265 259 254 250 248 249 252 255 258 262 265 268 270 272 273 275 276 277 279 280 282 283 285 285 286 287 287 287 287 287 286 286 286 285 285 285 285 284 284 284 284 283
300 299 298 297 297 296 295 294 293 293 292 291 290 290 289 288 287 286 285 285 284 284 284 283 284 284 285 285 286 286 286 286 287 288 288 287 284 283 283 283 279 273 267 261 255 250 247 247 249 252 256 259 263 265 268 270 272 274 276 277 278 280 281 283 284 285 286 286 286 286 286 286 286 286 286 285 285 285 284 284 284 283 283 283 283 283
298 297 296 296 295 295 294 294 293 293 292 291 291 290 289 288 287 287 286 286 286 285 286 286 286 286 287 287 287 287 287 288 288 288 287 284 281 280 280 277 270 263 257 253 249 247 247 250 253 257 260 264 266 269 271 273 275 277 278 280 281 282 284 285 285 286 286 286 286 286 286 286 286 285 285 285 285 284 284 283 283 283 283 282 282 282
297 296 295 294 294 293 293 292 292 291 291 291 290 290 289 289 288 288 287 287 287 287 287 287 288 288 288 288 287 287 287 287 288 287 284 280 277 275 274 267 260 254 251 249 248 249 251 254 258 261 264 267 270 273 275 276 278 280 281 282 283 284 285 286 286 286 287 287 287 287 286 286 286 286 285 285 285 284 284 283 283 283 283 282 282 282
296 295 294 293 293 293 292 292 292 291 291 291 290 289 289 289 288 288 288 288 288 288 288 288 287 287 287 287 286 286 285 285 285 282 278 273 270 269 265 258 252 249 249 249 250 252 255 259 262 265 268 271 274 276 278 279 281 282 283 284 285 285 286 286 287 287 287 287 287 287 287 286 286 286 286 285 285 284 284 284 283 283 283 282 282 282
295 294 294 294 293 293 293 292 292 292 292 291 291 290 289 289 289 289 289 289 288 288 288 287 287 287 286 285 284 283 283 282 280 276 271 266 264 262 258 252 248 249 250 252 254 257 260 263 267 269 272 275 277 279 280 282 283 283 284 285 285 286 286 287 287 287 287 287 287 287 287 287 286 286 286 285 285 284 284 283 283 283 282 282 282 282
294 295 295 295 295 294 294 294 294 293 293 292 292 291 290 290 290 289 289 288 288 287 287 286 286 286 285 283 282 281 280 278 274 269 263 260 258 257 254 250 248 250 253 256 259 262 265 268 271 273 275 277 279 281 282 283 284 284 285 285 286 286 287 287 287 287 288 288 288 287 287 287 287 286 286 285 285 284 284 283 283 283 282 282 282 282
296 297 297 298 297 297 297 297 296 296 295 294 293 293 292 292 291 290 289 287 286 286 286 286 285 284 283 281 279 278 275 272 267 262 257 255 254 255 254 251 251 253 257 260 264 266 269 271 274 276 278 279 281 282 283 284 285 285 286 286 287 287 287 288 288 288 288 288 288 287 287 287 286 286 285 285 285 284 284 284 284 283 283 283 283 283
299 300 300 301 301 300 300 300 299 299 298 297 297 296 296 295 293 291 289 288 286 285 285 284 283 282 280 278 277 274 271 266 261 257 254 253 253 255 256 255 255 257 260 264 267 270 272 274 276 278 279 281 282 283 284 285 285 286 286 287 287 288 288 288 288 288 288 288 288 287 287 287 286 286 286 285 285 285 285 284 284 284 284 284 284 284
303 303 304 304 304 304 303 303 302 301 300 300 299 299 298 296 295 293 291 289 287 285 284 282 280 278 277 276 274 271 269 263 259 255 253 252 254 256 259 259 260 261 264 267 270 272 274 276 278 279 281 282 283 284 285 286 286 287 287 288 288 289 289 289 289 289 289 289 288 288 288 287 287 286 286 286 286 285 285 285 285 285 285 285 285 285
307 307 307 307 306 306 305 304 303 303 302 301 300 299 298 297 295 293 291 289 287 285 283 281 278 276 275 273 271 269 267 263 259 255 253 253 255 258 261 263 264 265 267 270 272 274 276 278 279 281 282 283 284 285 286 287 287 288 289 289 290 290 290 291 291 290 290 290 290 289 289 288 288 287 287 287 286 286 286 286 286 286 286 286 286 286
310 310 310 309 309 307 306 306 305 304 303 302 301 300 298 296 295 292 290 288 286 285 283 280 276 274 273 271 269 267 266 263 260 256 255 255 256 259 263 265 267 268 270 271 273 275 277 279 280 282 283 284 286 286 287 288 289 289 290 291 291 292 292 292 292 292 292 291 291 290 290 290 289 289 288 288 287 287 287 287 287 286 286 286 287 287
313 313 313 313 312 311 309 308 307 306 304 304 302 301 299 296 294 291 288 287 286 284 282 278 275 272 271 270 269 268 266 264 261 258 257 256 257 259 263 266 268 269 270 272 274 276 278 279 281 282 284 285 287 288 288 289 290 291 291 292 292 292 293 293 293 292 292 292 291 291 291 290 290 289 289 288 288 288 287 287 287 287 287 287 287 287
316 317 317 316 315 314 313 312 310 308 306 305 304 302 299 296 293 290 288 287 285 283 280 278 275 272 270 269 269 268 267 265 263 260 259 258 259 261 264 266 268 269 270 272 274 276 278 280 282 283 284 286 287 288 289 290 290 291 292 292 292 292 293 292 292 292 292 291 291 291 290 290 290 289 289 288 288 288 288 288 288 287 288 288 288 288
318 318 318 318 317 316 315 314 312 310 308 307 305 303 300 297 294 291 289 287 284 281 279 277 275 272 271 269 268 268 267 267 266 264 262 261 261 263 265 266 268 269 270 271 273 275 277 280 282 283 285 286 286 288 289 289 290 291 291 292 292 292 292 291 291 290 290 290 290 289 289 289 289 289 288 288 288 288 288 288 288 288 288 289 289 289
318 318 317 317 317 316 315 314 313 311 309 308 306 303 301 298 296 293 290 287 284 281 279 276 274 272 271 269 268 267 268 269 269 268 266 265 265 265 266 267 269 271 272 273 274 275 276 278 280 282 284 285 286 287 288 289 289 290 290 290 290 290 290 290 289 289 288 288 288 288 288 288 288 288 288 288 288 288 288 288 288 289 289 289 289 289
317 317 317 316 316 315 314 313 312 311 309 308 306 304 301 299 296 294 291 288 285 282 279 276 274 272 271 270 269 268 269 270 271 271 270 269 269 269 269 270 271 273 275 276 276 277 277 277 277 278 280 282 284 285 286 287 288 288 288 289 289 289 288 288 288 287 287 286 286 286 286 286 286 287 287 287 288 288 288 288 289 289 290 290 290 290
317 317 316 316 315 314 313 312 311 310 309 307 306 304 302 300 297 295 292 289 286 283 279 277 274 273 271 270 270 269 269 270 271 272 272 272 272 272 273 273 274 276 277 278 279 280 280 280 279 278 278 280 282 283 285 285 286 287 287 287 287 287 287 286 286 286 285 285 285 285 285 285 285 286 286 287 287 288 288 289 289 290 290 290 290 290
316 316 316 315 314 314 313 312 311 309 308 307 305 304 302 300 297 295 292 289 286 283 280 277 275 273 272 271 270 270 269 270 271 273 274 274 274 275 275 276 277 278 279 280 281 281 282 282 282 282 281 281 282 283 284 285 285 286 286 286 286 286 285 285 284 284 284 283 283 283 284 284 284 285 286 286 287 288 288 289 290 290 291 291 291 290
316 316 315 314 314 313 312 311 311 309 308 306 305 303 301 299 297 295 292 289 286 283 281 279 276 274 272 271 270 270 270 271 273 274 275 276 276 276 277 278 278 279 280 281 282 283 283 284 285 285 285 284 283 283 284 284 285 285 285 285 285 284 284 283 282 282 282 282 282 283 283 284 284 285 285 286 287 288 288 289 290 290 291 291 291 291
315 315 314 314 313 312 312 311 310 309 308 306 305 303 301 299 297 294 291 288 286 283 281 279 277 275 274 272 271 270 271 272 274 275 276 277 278 278 279 279 280 281 281 282 283 284 285 285 286 286 286 286 286 285 284 284 285 285 285 284 283 282 282 281 281 281 281 281 282 283 283 284 284 285 286 286 287 288 289 289 290 290 291 291 291 291
315 314 314 313 312 311 311 310 310 309 307 306 304 302 301 299 296 294 291 288 285 282 280 278 277 276 275 274 273 272 272 273 274 276 277 278 279 280 281 281 282 283 283 284 285 286 286 287 287 288 288 288 288 288 287 286 286 286 285 284 282 281 280 279 279 279 280 281 282 283 283 284 285 285 286 286 287 288 289 290 290 290 291 291 291 291
315 314 313 313 312 311 310 310 309 308 307 305 303 301 299 297 295 293 291 288 285 282 280 278 277 276 275 275 274 274 274 274 275 277 278 280 281 282 283 284 284 285 286 287 287 288 288 289 289 289 289 289 289 289 290 289 289 288 287 285 283 281 279 278 277 278 279 280 282 283 283 284 285 285 286 286 287 288 289 290 290 290 291 291 291 291
314 314 313 312 311 311 310 309 308 307 306 304 302 300 298 296 295 293 290 288 285 283 280 278 277 276 276 276 276 276 276 277 278 279 281 282 284 285 285 286 287 287 288 288 289 290 290 290 290 291 291 291 291 291 291 292 292 292 290 288 286 283 281 280 279 279 279 280 281 282 283 283 284 285 285 286 287 288 289 290 290 290 291 291 291 291
314 313 313 312 311 311 310 309 308 306 305 303 301 299 298 296 295 293 291 288 286 284 282 280 279 278 277 277 278 278 279 280 281 282 284 285 286 287 287 288 288 289 289 289 290 290 291 291 292 292 292 293 293 293 293 294 294 294 293 291 289 286 284 283 282 282 282 281 282 282 282 282 283 283 284 285 286 287 288 289 289 290 290 290 291 290
314 313 312 312 311 311 310 309 307 306 304 303 301 300 298 296 295 293 291 289 287 285 284 282 281 280 279 279 280 280 282 283 284 285 286 287 288 288 289 289 289 290 290 291 291 292 292 293 293 294 294 295 295 295 295 296 296 296 295 294 292 290 288 287 287 286 285 284 284 283 283 283 283 283 284 285 286 287 288 288 289 289 290 290 290 290
313 313 312 312 311 310 309 308 307 306 304 303 302 300 298 297 295 293 291 290 288 286 285 284 283 282 282 282 282 283 284 285 287 288 288 289 289 290 290 291 291 292 292 292 293 293 294 294 295 295 296 296 296 296 297 297 298 297 297 296 294 292 291 291 291 290 289 288 287 286 285 285 284 284 285 285 286 287 288 289 290 290 290 290 290 290
313 313 312 312 311 310 309 308 307 306 305 304 302 300 299 297 295 293 292 290 288 287 286 285 284 283 284 284 285 286 287 289 290 291 291 292 292 292 293 293 293 293 294 294 294 295 295 295 296 297 297 297 297 297 298 298 298 298 297 297 296 295 294 294 293 292 292 291 290 289 288 287 287 287 287 287 288 289 289 290 291 291 291 291 290 290
313 313 312 312 311 311 310 309 308 307 305 304 302 301 299 297 295 294 292 290 289 288 287 286 285 285 285 286 288 289 290 292 293 293 293 293 294 294 294 294 294 294 294 295 295 296 296 296 297 297 297 297 298 298 299 299 299 299 298 298 297 298 298 298 297 295 294 293 292 292 291 290 289 289 289 289 290 290 291 291 291 291 291 291 290 290
314 313 313 312 312 311 310 309 308 307 306 304 302 301 299 297 296 294 293 291 290 288 287 287 287 287 288 288 289 291 292 293 294 294 294 294 294 294 294 294 294 295 295 296 296 297 297 297 298 298 298 298 298 299 300 301 300 300 299 299 299 299 300 300 299 298 296 295 294 293 293 292 292 291 292 292 292 292 292 292 292 292 291 291 290 290
314 313 313 312 312 311 310 309 308 307 306 304 303 301 300 298 296 294 293 291 290 289 288 288 288 289 290 291 291 292 292 293 293 293 294 294 294 294 295 295 296 296 297 297 298 298 298 298 299 299 299 299 299 300 302 302 302 301 301 301 301 301 301 301 300 299 298 297 296 295 294 294 293 294 294 293 293 293 293 293 293 292 292 291 290 289
314 313 313 312 312 311 310 309 308 307 306 304 303 302 300 298 297 295 293 292 291 290 289 290 290 291 291 292 292 292 292 292 292 293 294 294 295 296 297 297 298 298 299 299 299 299 299 299 300 300 300 300 301 302 302 303 303 302 302 302 302 302 302 301 300 299 298 297 297 296 295 295 295 295 295 294 294 294 294 294 293 293 292 291 289 288
313 313 312 312 311 311 310 309 308 307 306 304 303 302 300 299 297 296 294 293 291 291 290 291 291 292 292 293 293 293 293 293 293 293 294 295 296 297 298 298 299 299 299 299 299 299 300 300 300 301 301 302 302 302 303 303 302 302 302 302 302 302 301 301 300 299 298 298 297 297 296 296 296 296 295 295 294 294 294 293 293 292 291 290 288 287
313 313 312 311 311 310 309 308 308 306 305 304 303 302 300 299 297 296 294 293 293 292 292 292 293 294 294 294 294 294 295 295 295 295 296 296 297 297 298 298 298 299 299 299 299 299 299 299 300 300 301 302 302 302 302 301 301 301 302 302 302 302 301 300 299 299 298 298 298 297 297 297 297 297 296 295 295 294 294 293 292 291 290 289 288 287
313 312 312 311 310 309 308 308 307 306 305 304 303 301 300 299 297 296 295 294 294 294 294 294 295 295 295 296 296 296 297 297 297 297 298 298 298 298 298 298 298 298 298 298 298 298 298 298 299 300 301 301 301 301 301 301 301 301 302 302 302 302 301 301 300 299 299 298 298 298 298 298 298 297 297 296 295 295 294 294 293 292 290 289 288 288
312 312 311 311 310 309 308 307 306 305 304 303 302 301 300 298 298 297 296 296 296 296 296 296 297 297 297 297 298 298 298 299 299 299 299 299 299 300 300 300 299 299 299 298 298 298 298 298 298 299 300 301 301 301 301 302 302 302 302 303 302 302 302 301 300 300 299 299 299 299 299 299 298 298 297 297 296 296 296 295 294 293 292 291 290 289
Height
3047 3045 3043 3041 3040 3038 3038 3038 3039 3040 3040 3040 3041 3041 3042 3043 3044 3044 3044 3044 3043 3043 3043 3042 3042 3042 3042 3043 3043 3043 3042 3042 3042 3043 3043 3043 3043 3044 3044 3044 3044 3044 3045 3045 3046 3046 3047 3047 3047 3047 3046 3045 3045 3045 3045 3045 3045 3045 3045 3045 3045 3045 3045 3045 3045 3045 3044 3044 3044 3044 3043 3043 3043 3042 3042 3042 3041 3041 3041 3041 3041 3041 3041 3041 3041 3041
3045 3043 3040 3039 3037 3036 3035 3035 3035 3036 3037 3038 3038 3039 3039 3040 3040 3040 3040 3040 3040 3040 3040 3040 3040 3040 3040 3040 3041 3041 3040 3040 3041 3041 3041 3041 3041 3042 3042 3042 3042 3042 3043 3043 3044 3044 3045 3045 3045 3045 3044 3043 3042 3042 3042 3042 3042 3043 3043 3043 3042 3042 3042 3042 3042 3041 3041 3041 3040 3040 3040 3040 3039 3039 3039 3038 3038 3038 3038 3038 3038 3038 3039 3039 3039 3039
3044 3041 3039 3037 3035 3034 3033 3033 3034 3034 3035 3035 3035 3036 3036 3037 3037 3038 3038 3038 3038 3038 3038 3038 3038 3038 3038 3039 3039 3039 3039 3039 3039 3039 3039 3040 3040 3040 3040 3040 3040 3040 3041 3041 3042 3042 3042 3042 3042 3042 3041 3040 3040 3040 3040 3040 3040 3040 3040 3040 3040 3039 3039 3039 3038 3038 3038 3037 3037 3037 3036 3036 3036 3036 3036 3036 3036 3036 3036 3036 3036 3036 3036 3037 3037 3037
3042 3040 3038 3036 3035 3034 3033 3033 3032 3033 3033 3034 3034 3034 3035 3035 3035 3036 3036 3036 3036 3036 3036 3036 3036 3036 3037 3037 3037 3037 3037 3037 3037 3037 3037 3038 3038 3038 3038 3039 3039 3039 3039 3040 3040 3040 3040 3040 3040 3039 3039 3038 3037 3037 3037 3037 3037 3037 3037 3037 3036 3036 3036 3035 3035 3035 3035 3035 3034 3034 3034 3034 3034 3034 3034 3034 3034 3034 3034 3034 3035 3035 3035 3035 3035 3035
3041 3039 3037 3035 3034 3033 3033 3032 3032 3032 3033 3033 3033 3034 3034 3034 3034 3035 3035 3035 3035 3035 3035 3035 3035 3035 3035 3035 3036 3036 3036 3036 3036 3036 3036 3036 3036 3036 3037 3037 3037 3037 3037 3037 3037 3037 3037 3037 3037 3036 3036 3035 3035 3035 3034 3034 3034 3034 3034 3034 3034 3033 3033 3033 3032 3032 3032 3032 3032 3032 3032 3032 3032 3032 3032 3032 3032 3032 3032 3032 3032 3032 3032 3032 3032 3032
3040 3038 3036 3035 3033 3033 3032 3032 3032 3032 3032 3032 3033 3033 3033 3033 3033 3033 3033 3034 3034 3034 3034 3034 3034 3034 3035 3035 3035 3035 3035 3035 3035 3035 3035 3035 3035 3035 3035 3035 3035 3035 3035 3035 3035 3035 3035 3034 3034 3033 3033 3032 3032 3032 3031 3031 3031 3031 3031 3031 3030 3030 3030 3030 3030 3030 3030 3030 3030 3030 3030 3030 3030 3030 3030 3030 3030 3030 3030 3030 3030 3030 3030 3030 3030 3030
3039 3037 3035 3034 3033 3032 3032 3032 3032 3032 3032 3032 3032 3032 3032 3032 3032 3032 3032 3033 3033 3033 3033 3033 3033 3033 3034 3034 3034 3034 3034 3033 3033 3033 3033 3033 3033 3034 3034 3034 3034 3033 3033 3033 3032 3032 3032 3031 3031 3031 3030 3030 3029 3029 3029 3028 3028 3028 3028 3028 3028 3028 3028 3028 3028 3028 3028 3028 3028 3028 3028 3028 3028 3028 3028 3028 3028 3028 3028 3028 3028 3027 3027 3027 3027 3027
3038 3037 3035 3034 3033 3032 3032 3032 3032 3032 3032 3032 3032 3032 3032 3032 3032 3032 3032 3032 3032 3032 3032 3032 3032 3033 3033 3033 3033 3032 3032 3032 3032 3032 3032 3032 3032 3032 3032 3031 3031 3031 3030 3030 3030 3030 3029 3029 3029 3028 3027 3027 3026 3026 3026 3025 3025 3025 3025 3026 3026 3026 3026 3026 3026 3026 3026 3026 3026 3026 3026 3026 3026 3026 3026 3026 3026 3025 3025 3025 3025 3025 3025 3024 3024 3024
3038 3037 3035 3035 3034 3033 3032 3032 3032 3032 3031 3031 3031 3031 3031 3031 3031 3031 3031 3031 3031 3031 3031 3032 3032 3032 3032 3031 3031 3031 3031 3031 3031 3030 3030 3030 3030 3030 3029 3029 3029 3029 3028 3028 3027 3027 3027 3026 3025 3025 3024 3024 3023 3023 3023 3023 3023 3023 3024 3024 3024 3024 3025 3025 3025 3025 3025 3025 3025 3025 3025 3024 3024 3024 3024 3024 3023 3023 3023 3023 3022 3022 3022 3022 3021 3021
3037 3036 3035 3035 3034 3033 3033 3032 3032 3032 3032 3032 3031 3031 3031 3031 3031 3031 3031 3030 3030 3030 3030 3031 3031 3030 3030 3030 3030 3030 3030 3029 3029 3029 3028 3028 3028 3027 3027 3027 3027 3026 3026 3025 3025 3024 3023 3023 3022 3022 3021 3021 3021 3021 3021 3021 3021 3022 3022 3022 3023 3023 3023 3023 3023 3023 3023 3023 3023 3023 3022 3022 3022 3022 3022 3021 3021 3021 3020 3020 3020 3020 3019 3019 3019 3019
3037 3036 3035 3035 3034 3034 3034 3033 3033 3033 3032 3032 3032 3032 3031 3031 3031 3030 3030 3030 3030 3030 3030 3030 3030 3029 3029 3029 3028 3028 3028 3027 3027 3027 3026 3026 3025 3025 3025 3024 3024 3023 3023 3022 3021 3020 3020 3020 3019 3019 3019 3018 3019 3019 3019 3020 3020 3020 3020 3021 3021 3021 3021 3021 3021 3021 3021 3021 3021 3021 3020 3020 3020 3020 3020 3019 3019 3019 3018 3018 3017 3017 3017 3016 3016 3016
3037 3036 3035 3035 3034 3034 3034 3033 3033 3033 3032 3032 3031 3031 3030 3030 3030 3030 3029 3029 3028 3028 3028 3028 3028 3027 3027 3027 3026 3026 3025 3025 3025 3024 3024 3023 3023 3022 3021 3021 3021 3020 3020 3019 3018 3017 3017 3017 3017 3016 3016 3016 3017 3017 3018 3018 3019 3019 3019 3020 3020 3020 3020 3020 3020 3020 3020 3019 3019 3019 3019 3018 3018 3018 3017 3017 3016 3016 3016 3015 3015 3015 3014 3014 3014 3013
3036 3035 3035 3034 3034 3033 3033 3033 3032 3032 3031 3031 3030 3030 3029 3029 3029 3028 3028 3027 3027 3026 3026 3026 3025 3025 3025 3025 3024 3024 3023 3022 3022 3021 3021 3020 3020 3019 3018 3018 3017 3017 3016 3015 3015 3015 3014 3015 3015 3015 3015 3015 3015 3016 3016 3017 3017 3018 3018 3018 3018 3018 3018 3018 3018 3018 3018 3017 3017 3017 3016 3016 3016 3015 3015 3015 3014 3014 3013 3013 3012 3012 3012 3011 3011 3011
3035 3035 3034 3034 3033 3032 3032 3031 3031 3030 3030 3030 3029 3028 3028 3027 3027 3026 3026 3025 3025 3025 3024 3024 3023 3023 3022 3022 3021 3021 3020 3020 3019 3019 3018 3017 3016 3015 3015 3014 3014 3014 3013 3012 3012 3012 3012 3013 3013 3013 3014 3014 3015 3015 3015 3016 3016 3016 3016 3017 3017 3016 3016 3016 3016 3016 3015 3015 3015 3015 3014 3014 3013 3013 3012 3012 3011 3011 3011 3010 3010 3010 3009 3009 3009 3008
3035 3034 3033 3033 3032 3031 3031 3030 3030 3029 3029 3028 3027 3027 3026 3025 3025 3024 3024 3023 3023 3022 3022 3022 3021 3020 3020 3019 3018 3018 3017 3017 3016 3016 3015 3014 3013 3012 3011 3011 3011 3011 3010 3010 3010 3010 3011 3011 3012 3012 3012 3013 3014 3014 3014 3015 3015 3015 3015 3015 3015 3015 3015 3014 3014 3014 3013 3013 3012 3012 3011 3011 3011 3010 3010 3010 3009 3009 3008 3008 3008 3007 3007 3006 3006 3006
3033 3033 3032 3031 3030 3030 3029 3029 3028 3027 3027 3026 3026 3025 3025 3024 3023 3023 3022 3022 3021 3020 3020 3019 3019 3018 3017 3016 3015 3014 3014 3013 3013 3013 3012 3011 3010 3009 3008 3009 3009 3009 3009 3009 3009 3010 3010 3010 3011 3011 3011 3012 3012 3013 3013 3013 3013 3014 3013 3013 3013 3013 3012 3012 3011 3011 3011 3010 3010 3010 3009 3009 3008 3008 3008 3007 3007 3006 3006 3005 3005 3005 3005 3004 3004 3003
3032 3031 3030 3030 3029 3028 3027 3027 3026 3025 3025 3024 3024 3023 3023 3022 3021 3020 3020 3019 3018 3018 3017 3016 3015 3015 3014 3013 3012 3011 3010 3010 3010 3010 3010 3009 3007 3006 3006 3007 3007 3007 3007 3007 3008 3009 3009 3010 3010 3010 3010 3011 3011 3011 3012 3012 3012 3012 3011 3011 3011 3010 3010 3010 3009 3009 3008 3008 3008 3007 3007 3006 3006 3005 3005 3005 3004 3004 3003 3003 3003 3002 3002 3001 3001 3001
3030 3030 3029 3028 3027 3026 3025 3025 3024 3023 3023 3022 3021 3021 3020 3020 3019 3018 3017 3016 3015 3015 3014 3013 3012 3011 3011 3010 3009 3008 3007 3007 3007 3007 3007 3006 3005 3004 3005 3005 3006 3006 3006 3006 3007 3008 3008 3008 3009 3009 3009 3010 3010 3010 3010 3010 3010 3010 3009 3009 3008 3008 3007 3007 3007 3006 3006 3005 3005 3005 3005 3004 3004 3003 3003 3002 3002 3001 3001 3000 3000 3000 2999 2999 2998 2998
3029 3028 3027 3026 3025 3025 3024 3023 3022 3021 3021 3020 3019 3019 3018 3017 3016 3015 3014 3014 3013 3012 3011 3010 3010 3009 3008 3007 3006 3006 3005 3005 3005 3005 3005 3004 3003 3003 3004 3004 3005 3005 3005 3005 3006 3007 3007 3007 3007 3008 3008 3008 3008 3008 3008 3008 3007 3007 3007 3006 3006 3005 3005 3005 3004 3004 3004 3003 3003 3002 3002 3001 3001 3000 3000 2999 2999 2998 2998 2997 2997 2996 2996 2996 2995 2995
3027 3026 3025 3024 3023 3022 3022 3021 3020 3019 3019 3018 3017 3016 3015 3015 3014 3013 3012 3011 3010 3010 3009 3008 3007 3006 3006 3005 3005 3004 3003 3003 3003 3003 3003 3002 3002 3002 3003 3003 3003 3004 3004 3005 3005 3005 3006 3006 3006 3006 3006 3006 3006 3006 3006 3005 3005 3005 3004 3004 3003 3003 3003 3002 3002 3001 3001 3001 3000 3000 2999 2999 2998 2998 2997 2996 2996 2995 2995 2995 2994 2994 2993 2993 2992 2992
3025 3024 3023 3022 3021 3020 3020 3019 3018 3017 3016 3016 3015 3014 3013 3012 3011 3010 3010 3009 3008 3007 3006 3006 3005 3005 3004 3003 3003 3002 3002 3001 3001 3001 3001 3001 3001 3001 3002 3002 3002 3003 3003 3004 3004 3004 3005 3005 3004 3004 3004 3004 3004 3004 3004 3003 3003 3002 3002 3001 3001 3001 3000 3000 3000 2999 2999 2998 2998 2997 2996 2996 2995 2995 2994 2993 2993 2992 2992 2991 2991 2990 2990 2990 2989 2989
3023 3022 3021 3020 3020 3019 3018 3017 3016 3015 3014 3014 3013 3012 3011 3010 3009 3009 3008 3007 3006 3005 3005 3004 3003 3003 3002 3001 3001 3000 3000 3000 3000 3000 3000 3000 3000 3000 3001 3001 3001 3002 3002 3002 3003 3003 3003 3003 3002 3002 3002 3002 3002 3001 3001 3001 3000 3000 3000 2999 2999 2998 2998 2997 2997 2996 2996 2995 2995 2994 2994 2993 2992 2992 2991 2990 2990 2989 2989 2988 2988 2987 2987 2986 2986 2985
3021 3020 3020 3019 3018 3017 3016 3015 3014 3013 3012 3011 3010 3010 3009 3008 3007 3007 3006 3005 3004 3003 3003 3002 3002 3001 3000 3000 3000 2999 2999 2999 2999 2999 2999 2999 2999 2999 3000 3000 3000 3000 3000 3001 3001 3001 3001 3001 3000 3000 3000 3000 3000 2999 2999 2998 2998 2998 2997 2997 2996 2996 2995 2995 2994 2994 2993 2993 2992 2991 2991 2990 2989 2989 2988 2987 2987 2986 2985 2985 2984 2984 2983 2983 2983 2982
3020 3019 3018 3017 3016 3015 3014 3013 3012 3011 3010 3010 3009 3008 3007 3006 3005 3005 3004 3003 3002 3002 3001 3001 3000 3000 2999 2998 2998 2998 2998 2998 2998 2998 2998 2998 2998 2998 2998 2999 2999 2999 2999 2999 2999 2999 2999 2999 2998 2998 2997 2997 2997 2997 2996 2996 2995 2995 2995 2994 2994 2993 2993 2992 2991 2991 2990 2990 2989 2988 2988 2987 2986 2985 2985 2984 2983 2983 2982 2981 2981 2980 2980 2980 2979 2979
3018 3017 3016 3015 3014 3013 3012 3011 3010 3010 3009 3008 3007 3006 3005 3005 3004 3003 3002 3001 3000 3000 3000 2999 2999 2998 2997 2997 2997 2996 2996 2996 2996 2996 2996 2996 2996 2996 2996 2997 2997 2997 2997 2997 2997 2997 2997 2997 2996 2995 2995 2995 2995 2995 2994 2994 2993 2993 2992 2991 2991 2990 2990 2989 2989 2988 2987 2986 2986 2985 2985 2984 2983 2982 2981 2981 2980 2979 2979 2978 2977 2977 2976 2976 2975 2975
3016 3015 3015 3014 3013 3012 3011 3010 3009 3008 3007 3006 3005 3004 3004 3003 3002 3001 3000 3000 2999 2998 2998 2997 2997 2996 2996 2995 2995 2995 2995 2995 2995 2995 2995 2995 2995 2995 2995 2995 2995 2996 2996 2995 2995 2995 2995 2995 2994 2993 2993 2993 2992 2992 2992 2991 2990 2990 2989 2989 2988 2987 2987 2986 2985 2985 2984 2983 2982 2982 2981 2980 2980 2979 2978 2977 2976 2976 2975 2975 2974 2973 2973 2972 2972 2972
3015 3014 3013 3012 3011 3010 3009 3008 3007 3006 3005 3004 3004 3003 3002 3001 3000 3000 2999 2998 2997 2997 2996 2996 2995 2995 2995 2994 2994 2994 2994 2994 2994 2994 2994 2994 2994 2994 2993 2993 2994 2994 2994 2994 2993 2993 2993 2993 2992 2991 2991 2990 2990 2990 2989 2989 2988 2987 2987 2986 2985 2985 2984 2983 2982 2981 2980 2980 2979 2978 2977 2977 2976 2975 2975 2974 2973 2972 2972 2971 2970 2970 2969 2969 2969 2969
3013 3012 3011 3010 3009 3008 3007 3006 3005 3004 3003 3003 3002 3001 3000 3000 2999 2998 2997 2996 2995 2995 2995 2995 2994 2994 2993 2993 2993 2992 2992 2992 2992 2992 2992 2992 2992 2992 2992 2992 2992 2992 2992 2992 2991 2991 2991 2990 2990 2989 2989 2988 2988 2987 2987 2986 2985 2985 2984 2983 2982 2982 2981 2980 2979 2978 2977 2976 2975 2975 2974 2973 2972 2971 2971 2970 2970 2969 2968 2967 2967 2966 2966 2965 2965 2965
3011 3010 3009 3008 3007 3006 3005 3005 3004 3003 3002 3001 3000 2999 2999 2998 2997 2996 2995 2995 2994 2994 2993 2993 2992 2992 2992 2991 2991 2991 2990 2990 2991 2991 2991 2991 2991 2991 2990 2990 2990 2990 2990 2990 2990 2990 2989 2989 2988 2987 2986 2986 2985 2985 2984 2984 2983 2982 2981 2980 2980 2979 2978 2977 2976 2975 2974 2973 2972 2971 2970 2970 2969 2968 2967 2966 2966 2965 2965 2964 2963 2963 2962 2962 2962 2962
3009 3008 3007 3006 3005 3004 3004 3003 3002 3001 3000 2999 2998 2998 2997 2996 2995 2995 2994 2993 2993 2992 2992 2991 2991 2990 2990 2990 2990 2989 2989 2989 2989 2989 2989 2989 2989 2989 2989 2989 2988 2988 2988 2988 2988 2988 2988 2987 2986 2985 2985 2984 2983 2983 2982 2981 2980 2980 2979 2978 2977 2976 2975 2975 2973 2972 2971 2970 2969 2968 2967 2966 2965 2965 2964 2963 2962 2962 2961 2961 2960 2959 2959 2959 2958 2958
3007 3006 3005 3004 3003 3002 3002 3001 3000 2999 2998 2997 2997 2996 2995 2994 2994 2993 2992 2992 2991 2991 2990 2990 2990 2989 2989 2988 2988 2988 2987 2986 2986 2987 2987 2987 2988 2988 2987 2987 2986 2986 2986 2986 2986 2986 2986 2986 2985 2984 2983 2982 2981 2980 2980 2979 2978 2977 2976 2976 2975 2974 2973 2972 2971 2970 2969 2967 2966 2965 2964 2963 2962 2961 2960 2960 2959 2959 2958 2957 2957 2956 2955 2955 2955 2955
3006 3005 3004 3003 3002 3001 3000 2999 2998 2997 2997 2996 2995 2994 2993 2993 2992 2991 2991 2990 2990 2989 2989 2988 2988 2987 2987 2987 2987 2986 2985 2985 2984 2985 2985 2985 2985 2985 2985 2985 2984 2984 2984 2984 2983 2983 2984 2984 2984 2983 2982 2981 2980 2979 2978 2977 2976 2975 2975 2974 2973 2971 2970 2969 2968 2967 2966 2965 2964 2962 2961 2960 2959 2958 2957 2957 2956 2955 2955 2954 2953 2953 2952 2952 2951 2951
3004 3003 3002 3001 3000 2999 2998 2997 2997 2996 2995 2994 2993 2992 2992 2991 2990 2990 2989 2988 2988 2987 2987 2986 2986 2986 2985 2985 2985 2985 2984 2983 2982 2982 2983 2983 2983 2983 2983 2983 2982 2982 2981 2981 2981 2980 2980 2981 2981 2981 2981 2980 2979 2978 2977 2975 2975 2973 2972 2971 2970 2969 2968 2966 2965 2964 2963 2962 2960 2960 2959 2957 2956 2955 2955 2954 2953 2952 2952 2951 2950 2950 2949 2948 2948 2948
3003 3002 3001 3000 2999 2998 2997 2996 2995 2994 2993 2992 2991 2991 2990 2989 2989 2988 2987 2986 2986 2986 2985 2985 2985 2984 2984 2984 2984 2983 2982 2981 2981 2980 2981 2981 2981 2981 2981 2980 2980 2980 2979 2978 2978 2978 2977 2978 2978 2978 2978 2978 2977 2976 2975 2974 2972 2971 2970 2969 2968 2967 2965 2964 2963 2961 2960 2959 2958 2956 2955 2955 2954 2953 2952 2951 2950 2950 2949 2948 2948 2947 2946 2945 2945 2944
3001 3000 2999 2998 2997 2996 2995 2994 2993 2992 2991 2990 2990 2989 2988 2987 2987 2986 2985 2985 2984 2984 2984 2983 2983 2983 2982 2982 2982 2982 2981 2980 2979 2979 2979 2979 2979 2979 2979 2978 2978 2977 2976 2976 2975 2975 2975 2975 2975 2975 2974 2974 2975 2974 2973 2972 2970 2969 2968 2967 2966 2964 2963 2961 2960 2959 2957 2956 2955 2954 2953 2952 2951 2950 2949 2948 2948 2947 2946 2946 2945 2944 2943 2942 2941 2941
3000 2999 2997 2996 2995 2994 2993 2992 2991 2990 2990 2989 2988 2987 2986 2986 2985 2985 2984 2983 2983 2982 2982 2981 2981 2981 2981 2980 2980 2980 2979 2978 2978 2977 2977 2977 2977 2977 2976 2976 2975 2975 2974 2973 2973 2973 2972 2972 2971 2971 2971 2971 2971 2971 2970 2970 2968 2967 2966 2965 2964 2962 2960 2959 2958 2956 2955 2954 2952 2951 2950 2949 2948 2947 2947 2946 2945 2945 2944 2943 2943 2942 2941 2940 2939 2938
2998 2997 2996 2995 2994 2993 2992 2991 2990 2989 2988 2987 2986 2985 2985 2984 2983 2983 2982 2982 2981 2981 2980 2980 2980 2979 2979 2979 2978 2978 2978 2977 2976 2975 2975 2975 2975 2974 2974 2974 2973 2972 2972 2971 2970 2970 2970 2969 2969 2968 2968 2967 2967 2967 2966 2966 2965 2965 2964 2962 2961 2960 2958 2957 2955 2954 2952 2951 2950 2949 2948 2947 2946 2945 2944 2944 2943 2942 2942 2941 2940 2939 2938 2937 2936 2935
2996 2995 2994 2993 2992 2991 2990 2989 2988 2987 2986 2985 2985 2984 2983 2982 2982 2981 2981 2980 2980 2979 2979 2979 2978 2978 2977 2977 2976 2976 2975 2975 2974 2974 2973 2973 2972 2972 2972 2971 2970 2970 2969 2968 2967 2967 2966 2966 2965 2965 2965 2964 2964 2963 2962 2962 2961 2961 2960 2959 2958 2957 2956 2955 2953 2952 2950 2949 2948 2947 2946 2945 2943 2942 2942 2941 2940 2940 2939 2939 2938 2937 2935 2935 2934 2933
2994 2993 2992 2991 2990 2989 2988 2987 2986 2985 2985 2984 2983 2982 2981 2981 2980 2980 2979 2979 2978 2978 2977 2977 2976 2976 2975 2975 2975 2974 2974 2973 2972 2972 2971 2971 2970 2970 2969 2969 2968 2967 2966 2966 2965 2964 2964 2963 2962 2962 2961 2961 2960 2960 2959 2958 2958 2957 2956 2956 2955 2954 2953 2952 2950 2950 2948 2947 2946 2945 2944 2942 2941 2940 2939 2939 2938 2937 2937 2936 2935 2934 2933 2932 2931 2930
2993 2991 2990 2990 2988 2987 2986 2985 2985 2984 2983 2982 2981 2980 2980 2979 2978 2978 2977 2977 2976 2976 2975 2975 2975 2974 2974 2973 2973 2972 2972 2971 2970 2970 2969 2969 2968 2967 2967 2966 2965 2965 2964 2963 2963 2962 2961 2960 2959 2959 2958 2957 2957 2956 2956 2955 2955 2953 2953 2952 2951 2951 2950 2949 2948 2947 2946 2945 2944 2943 2941 2940 2939 2938 2937 2936 2936 2935 2935 2934 2933 2932 2930 2930 2929 2928
2991 2990 2989 2988 2987 2985 2985 2984 2983 2982 2981 2980 2979 2979 2978 2977 2977 2976 2975 2975 2975 2974 2974 2973 2973 2972 2972 2971 2971 2970 2970 2969 2968 2968 2967 2966 2965 2965 2964 2964 2963 2962 2961 2961 2960 2959 2958 2957 2956 2955 2955 2954 2953 2953 2952 2952 2951 2950 2949 2948 2948 2947 2947 2946 2945 2944 2943 2942 2941 2940 2939 2938 2937 2936 2935 2934 2934 2933 2932 2931 2930 2929 2928 2927 2926 2925
2989 2988 2987 2986 2985 2984 2983 2982 2981 2980 2979 2978 2978 2977 2976 2975 2975 2975 2974 2973 2973 2972 2972 2971 2971 2971 2970 2970 2969 2968 2968 2967 2966 2965 2965 2964 2963 2962 2962 2961 2960 2960 2959 2958 2957 2956 2955 2955 2953 2952 2952 2951 2950 2949 2949 2949 2948 2947 2946 2945 2944 2944 2944 2943 2942 2941 2940 2939 2938 2937 2935 2935 2934 2933 2932 2932 2931 2930 2929 2928 2927 2926 2925 2924 2923 2921
2987 2986 2985 2984 2983 2982 2981 2980 2979 2978 2977 2976 2976 2975 2974 2974 2973 2972 2972 2971 2971 2970 2970 2970 2970 2969 2969 2968 2967 2966 2965 2965 2964 2963 2962 2961 2961 2960 2959 2958 2957 2957 2956 2955 2954 2953 2953 2952 2951 2950 2949 2948 2947 2946 2946 2946 2945 2944 2943 2942 2941 2940 2940 2940 2940 2938 2937 2936 2935 2933 2932 2931 2930 2930 2929 2929 2928 2927 2926 2925 2925 2923 2922 2921 2919 2918
2985 2984 2983 2982 2981 2980 2979 2978 2977 2976 2975 2975 2974 2973 2972 2972 2971 2970 2970 2969 2969 2968 2968 2968 2968 2967 2967 2966 2965 2964 2963 2962 2962 2961 2960 2959 2958 2957 2956 2956 2955 2954 2953 2952 2951 2950 2950 2949 2948 2947 2946 2945 2944 2944 2943 2943 2942 2941 2940 2939 2938 2937 2937 2936 2936 2935 2934 2933 2932 2930 2929 2928 2927 2926 2926 2925 2925 2924 2923 2922 2921 2920 2919 2917 2916 2915
2984 2982 2981 2980 2979 2978 2977 2976 2975 2975 2974 2973 2972 2971 2970 2970 2969 2969 2968 2967 2967 2966 2966 2966 2965 2965 2965 2964 2964 2963 2962 2961 2960 2959 2958 2957 2956 2955 2954 2953 2952 2951 2950 2950 2949 2948 2947 2946 2945 2945 2944 2943 2941 2941 2940 2940 2939 2938 2937 2937 2935 2935 2934 2933 2933 2932 2930 2930 2929 2927 2926 2924 2923 2923 2922 2922 2921 2921 2920 2919 2918 2917 2916 2914 2913 2912
2981 2980 2979 2978 2977 2976 2975 2974 2973 2972 2972 2971 2970 2969 2968 2968 2967 2967 2966 2965 2965 2965 2964 2964 2964 2963 2963 2962 2962 2961 2960 2959 2958 2957 2956 2955 2954 2953 2952 2951 2950 2949 2948 2947 2946 2945 2944 2943 2942 2941 2940 2940 2939 2938 2938 2937 2936 2935 2934 2934 2933 2932 2931 2930 2930 2928 2927 2926 2925 2924 2923 2921 2920 2919 2918 2918 2918 2917 2917 2916 2915 2914 2912 2911 2910 2909
2980 2979 2977 2976 2975 2974 2973 2972 2971 2970 2970 2969 2968 2967 2966 2966 2965 2965 2964 2964 2963 2963 2962 2962 2962 2961 2961 2960 2960 2959 2958 2958 2956 2955 2954 2953 2951 2950 2949 2948 2947 2946 2945 2944 2943 2942 2941 2940 2940 2939 2938 2937 2936 2936 2935 2934 2933 2932 2931 2930 2930 2929 2928 2928 2927 2925 2924 2923 2922 2921 2920 2918 2917 2916 2915 2914 2914 2914 2914 2913 2912 2910 2909 2908 2906 2905
2978 2977 2975 2975 2974 2972 2971 2970 2970 2969 2968 2967 2966 2965 2965 2964 2963 2963 2962 2962 2961 2961 2961 2960 2960 2960 2959 2958 2958 2957 2956 2955 2955 2954 2952 2951 2950 2948 2947 2946 2945 2944 2943 2941 2940 2939 2938 2938 2937 2936 2935 2934 2934 2933 2932 2932 2931 2930 2929 2928 2927 2926 2925 2925 2924 2923 2921 2920 2919 2918 2916 2915 2914 2912 2911 2910 2910 2910 2910 2910 2909 2908 2906 2905 2903 2902
2976 2975 2974 2973 2972 2970 2970 2969 2968 2967 2966 2965 2964 2963 2963 2962 2962 2961 2960 2960 2960 2959 2959 2959 2958 2958 2957 2956 2955 2955 2954 2953 2952 2951 2950 2949 2948 2946 2945 2944 2943 2942 2940 2939 2938 2937 2936 2935 2935 2934 2933 2932 2931 2930 2930 2929 2929 2927 2926 2925 2925 2924 2923 2922 2921 2920 2919 2917 2916 2915 2913 2912 2910 2909 2907 2906 2906 2906 2906 2906 2906 2905 2903 2902 2900 2899
2974 2973 2972 2971 2970 2969 2968 2967 2966 2965 2964 2963 2963 2962 2961 2960 2960 2959 2959 2958 2958 2957 2957 2957 2956 2955 2955 2954 2953 2952 2951 2950 2950 2949 2948 2946 2945 2944 2943 2942 2940 2940 2938 2937 2936 2935 2934 2933 2933 2932 2931 2930 2929 2928 2927 2927 2926 2925 2924 2923 2922 2921 2920 2919 2918 2917 2915 2914 2913 2912 2910 2909 2908 2906 2904 2903 2902 2902 2902 2903 2902 2902 2900 2899 2897 2895
2972 2971 2970 2969 2968 2967 2966 2965 2964 2963 2962 2962 2961 2960 2959 2959 2958 2957 2957 2956 2956 2955 2955 2955 2954 2953 2953 2952 2951 2950 2949 2948 2947 2946 2945 2944 2943 2941 2940 2939 2938 2937 2935 2935 2934 2933 2931 2931 2930 2930 2930 2929 2927 2925 2925 2924 2923 2923 2922 2921 2920 2918 2917 2915 2915 2913 2912 2911 2910 2909 2907 2906 2904 2903 2901 2899 2898 2898 2898 2898 2899 2898 2897 2895 2893 2892